Regional Weather Roundup
Issued by NWS

Home | Current Version | Previous Version | Text Only | Print | Product List | Glossary On
Versions: 1 2 3 4 5 6 7 8 9 10 11 12 13 14 15 16 17 18 19 20 21 22 23 24 25 26 27
000
ASUS42 KTBW 202210
RWRFL
FLORIDA REGIONAL WEATHER ROUNDUP
NATIONAL WEATHER SERVICE TAMPA BAY RUSKIN FL
600 PM EDT SUN APR 20 2014

NOTE: "FAIR" INDICATES FEW OR NO CLOUDS BELOW 12,000 FEET WITH NO
SIGNIFICANT WEATHER AND/OR OBSTRUCTIONS TO VISIBILITY.


FLZ001>010-012>015-112-114-115-202300-
PANHANDLE FLORIDA

CITY           SKY/WX    TMP DP  RH WIND       PRES   REMARKS
PENSACOLA      CLOUDY    66  52  60 N8        30.14S
PENSACOLA NAS  CLOUDY    66  54  65 NE9       30.13F
MILTON NAS     CLOUDY    64  52  64 NE6       30.15S
CRESTVIEW      CLOUDY    64  53  67 NE7       30.16S
DUKE FIELD     CLOUDY    62  52  69 NE7       30.15S
VALPARAISO     CLOUDY    63  54  72 NE13      30.15R
MARY ESTHER    CLOUDY    63  49  61 NE10      30.13S
PANAMA CITY    CLOUDY    61  52  72 N9        30.13S
TYNDALL AFB    CLOUDY    60  53  78 NE9       30.13S
APALACHICOLA   CLOUDY    63  53  70 N12       30.12R

STATION/POSITION SKY/WX   TEMP    WIND        PRES    WAVE   SWELL
                          AIR SEA DIR/SP/G            HT/PER HT/PER
                          (F)     (DEG/KT/KT) (MB)    (FT/S) (FT/S)
30.1N   87.6W              63 66   70/ 14/ 16 1020.5F   2/ 4
29.2N   88.2W              63 71   50/ 10/ 14 1020.5F
28.8N   86.0W              62 69   10/ 12/ 14 1020.0F   2/ 4
PANAMA CITY BEAC           59 67   10/  9/ 11 1020.3S
CAPE SAN BLAS    NOT AVBL
TOWER C                    61      10/ 13/ 14 1019.3R
28.5N   84.5W              62 68   20/ 14/ 17 1018.9F   3/ 5

$$
FLZ011-016>038-118-127-128-134-139-239-202300-
NORTH FLORIDA

CITY           SKY/WX    TMP DP  RH WIND       PRES   REMARKS
MARIANNA       CLOUDY    63  54  72 NE13      30.13F
TALLAHASSEE    CLOUDY    62  51  67 N10       30.12F
PERRY          CLOUDY    61  54  77 NE8G16    30.10F
CROSS CITY       N/A     63  55  75 N7        30.09R
GAINESVILLE    CLOUDY    62  54  74 N9        30.08S
MAYPORT NAS    CLOUDY    62  54  74 VRB6      30.09R
JACKSONVILLE   PTSUNNY   60  55  83 N9        30.09R
JAX NAS        CLOUDY    63  54  72 N15       30.09R
JAX CRAIG      CLOUDY    63  54  72 N9        30.09R
JAX CECIL      CLOUDY    59  54  82 N10       30.09S
FERNANDINA BEA CLOUDY    61  54  77 NW8       30.08S
ST AUGUSTINE   CLOUDY    62  56  80 N17G24    30.09R

STATION/POSITION SKY/WX   TEMP    WIND        PRES    WAVE   SWELL
                          AIR SEA DIR/SP/G            HT/PER HT/PER
                          (F)     (DEG/KT/KT) (MB)    (FT/S) (FT/S)
SHELL POINT                60      10/  9/ 13 1018.9F
KEATON BEACH               61      20/  8/ 10 1019.4R
CEDAR KEY                  65      50/  6/  7 1018.6F
FERNANDINA                 59 65  310/  9/ 11 1018.3S
30.7N   81.3W                 63                N/A     4/ 9   2/11
MAYPORT                    60 66  350/  7/ 12   N/A
31.4N   80.9W              64 63   10/ 10/ 14 1018.1S   5/12   5/12
ST AUGUSTINE               60      10/ 22/ 24 1018.9R

$$
FLZ040-043>046-052-053-057-058-063-144-202300-
INTERIOR CENTRAL FLORIDA

CITY           SKY/WX    TMP DP  RH WIND       PRES   REMARKS
OCALA          CLOUDY    64  54  68 N6        30.08R
THE VILLAGES     N/A     64  55  72 N6        30.08R
LEESBURG       CLOUDY    66  57  72 N8        30.08R
SANFORD        CLOUDY    66  57  72 NW10      30.06R
ORLANDO EXEC   CLOUDY    67  55  65 N9        30.06R
ORLANDO INTL   CLOUDY    69  57  65 N13       30.05R
KISSIMMEE      CLOUDY    70  61  73 NW9       30.05S
WINTER HAVEN   MOSUNNY   71  57  61 N8        30.06R
LAKELAND       PTSUNNY   72  59  64 NE8       30.04S
BARTOW         PTSUNNY   70  57  64 N8        30.05
OKEECHOBEE     CLOUDY    70  59  68 N3        30.03S

$$
FLZ041-047-054-059-064-141-147-202300-
EAST CENTRAL FLORIDA

CITY           SKY/WX    TMP DP  RH WIND       PRES   REMARKS
DAYTONA BEACH  PTSUNNY   65  56  72 N13G24    30.06R
DELAND         CLOUDY    64  55  72 NW8       30.07R
NEW SMYRNA BEA CLOUDY    64  57  77 N21G30    30.07R
JFK SPACE CTR  CLOUDY    64  58  79 N14G21    30.05R
TITUSVILLE     CLOUDY    64  57  77 N12       30.05R
CAPE CANAVERAL PTSUNNY   65  58  77 N14G22    30.04R
PATRICK AFB    CLOUDY    67  58  73 N16       30.04R
MELBOURNE      CLOUDY    69  57  65 N12       30.03R
VERO BEACH     PTSUNNY   71  60  68 N13       30.02S
FT PIERCE      CLOUDY    70  59  68 N8        30.02S
STUART         PTSUNNY   70  63  78 N12       30.03S

STATION/POSITION SKY/WX   TEMP    WIND        PRES    WAVE   SWELL
                          AIR SEA DIR/SP/G            HT/PER HT/PER
                          (F)     (DEG/KT/KT) (MB)    (FT/S) (FT/S)
28.5N   80.2W              65 71  330/ 21/ 25 1016.3R
28.9N   78.5W              74 76  340/ 16/ 19 1013.6R   7/ 8   5/ 8
TRIDENT PIER               65 74  360/ 12/ 17 1016.7R
28.4N   80.5W                 72                N/A     3/ 9
27.6N   80.2W                 74                N/A     5/ 6   2/12

$$
FLZ050-056-061-142-242-148-248-149-249-151-251-155-255-
160-260-202300-
WEST CENTRAL FLORIDA

CITY           SKY/WX    TMP DP  RH WIND       PRES   REMARKS
CRYSTAL RIVER  CLOUDY    66  55  68 NE8       30.06F
INVERNESS      CLOUDY    64  55  72 N8        30.07S
BROOKSVILLE    CLOUDY    68  58  70 W8        30.06S
CLEARWATER     SUNNY     70  58  65 NW13      30.05S
TAMPA INTL     MOSUNNY   70  58  65 NW12      30.05R
TAMPA EXEC     CLOUDY    72  59  64 N7        30.05S
PLANT CITY     CLOUDY    73  61  64 N6        30.06S
MACDILL AFB    MOSUNNY   70  62  76 W8        30.05S
PETER O KNIGHT CLOUDY    73  61  64 N8        30.04S
ST PETERSBURG  SUNNY     72  60  66 N10       30.03R
SARASOTA       SUNNY     73  60  63 NW9G17    30.03R
VENICE         FAIR      72  63  73 NW13      30.04R

STATION/POSITION SKY/WX   TEMP    WIND        PRES    WAVE   SWELL
                          AIR SEA DIR/SP/G            HT/PER HT/PER
                          (F)     (DEG/KT/KT) (MB)    (FT/S) (FT/S)
CEDAR KEY                  65      50/  6/  7 1018.6F
28.5N   84.5W              62 68   20/ 14/ 17 1018.9F   3/ 5
27.3N   84.3W                 72                N/A     4/ 6
CLEARWATER BEACH           65 71  350/ 12/ 15 1017.3F
MIDDLE TAMPA BAY           70      10/  8/ 11 1017.6R
VENICE                     70 74  320/ 16/ 17 1016.4S

$$
FLZ066-069-070-075>078-162-262-165-265-202300-
SOUTHWEST FLORIDA AND KEYS

CITY           SKY/WX    TMP DP  RH WIND       PRES   REMARKS
PUNTA GORDA    PTSUNNY   79  59  50 NE8       30.03S
FT MYERS       MOSUNNY   76  57  51 N5        30.00S
SOUTHWEST INTL CLOUDY    77  57  50 VRB7      30.01S
NAPLES         MOSUNNY   75  63  66 NW12      30.00F
MARATHON       PTSUNNY   77  61  57 NW9       30.00F
KEY WEST NAS   PTSUNNY   74  61  63 NW12      30.01F
KEY WEST INTL  PTSUNNY   74  63  68 NW13      30.02S

STATION/POSITION SKY/WX   TEMP    WIND        PRES    WAVE   SWELL
                          AIR SEA DIR/SP/G            HT/PER HT/PER
                          (F)     (DEG/KT/KT) (MB)    (FT/S) (FT/S)
VENICE                     70 74  320/ 16/ 17 1016.4S
NAPLES                     72 78  310/ 13/ 15 1016.3S
26.0N   85.6W              69 80   20/ 14/ 16 1018.2F   2/ 6
DRY TORTUGAS     NOT AVBL
NW FL BAY                  74     320/ 11/ 13 1016.3F
SOMBRERO KEY               73     320/ 12/ 14 1016.7S
LONG KEY                   73 80  320/ 11/ 12 1016.6F
MOLASSES REEF              74 78  280/ 12/ 14 1015.2F

$$
FLZ067-068-071>074-168-172>174-202300-
SOUTHEAST FLORIDA

CITY           SKY/WX    TMP DP  RH WIND       PRES   REMARKS
W PALM BEACH   PTSUNNY   75  61  61 N12       29.98S
FT LAUDER-EXEC MOSUNNY   76  58  53 N7        29.98S
FT LAUDERDALE  PTSUNNY   78  58  49 CALM      29.98S
POMPANO BEACH  CLOUDY    78  60  53 NW9       29.98F
PEMBROKE PINES PTSUNNY   77  59  53 W9        30.00S
OPA LOCKA      MOSUNNY   78  58  49 N10       29.99S
MIAMI          PTSUNNY   79  58  48 NW8       29.99S
WEST KENDALL   MOSUNNY   80  58  46 NW12      29.99S
HOMESTEAD      MOSUNNY   77  59  53 VRB2      29.98F

STATION/POSITION SKY/WX   TEMP    WIND        PRES    WAVE   SWELL
                          AIR SEA DIR/SP/G            HT/PER HT/PER
                          (F)     (DEG/KT/KT) (MB)    (FT/S) (FT/S)
PORT EVERGLADES            76     300/  6/ 10 1015.1
VIRGINIA KEY               74 80  100/  7/  9 1015.3F
LAKE WORTH                 70 76   10/ 17/ 18 1015.0S
FOWEY ROCKS                73 78   50/  9/ 10 1015.4F
SETTLEMENT POINT           71     310/ 17/ 20 1015.5F

$$




USA.gov is the U.S. government's official web portal to all federal, state and local government web resources and services.